Location: Góry Miechowskie
(50.3599°N, 20.1803°E)
Time: 06:46:43
(UTC+00:00)

Cosmos 1461 - Pass Details

Date: 20 September 2024
Orbit: 489 x 565 km, 65.0° (Epoch: 12 October)

Event Time Altitude Azimuth Distance (km) Brightness Sun altitude
Rises 03:43:57 0° 324° (NW) 2,587 6.0 -7.0°
Maximum altitude 03:49:24 19° 30° (NNE) 1,241 5.2 -6.2°
Drops below altitude 10° 03:52:15 10° 78° (ENE) 1,734 7.3 -5.7°
Sets 03:54:56 0° 96° (E) 2,635 8.2 -5.3°
